Cruise_ID,Date_UTC,Time_UTC,Date_EDT,Time_EDT,Latitude,Longitude,Temp_C,Sp_Cond,Sal_ppt,Depth_ft,pH,ODO,Chlorophyll
11BHM04,11/2/2011,17:03,11/2/2011,13:03,27.61148,-82.68477,21.84,51.63,33.99,33.921,8.27,96.9,2.7
11BHM04,11/2/2011,17:08,11/2/2011,13:08,27.60923,-82.70033,21.98,51.81,34.12,33.877,8.25,96.4,2.5
11BHM04,11/2/2011,17:13,11/2/2011,13:13,27.60703,-82.71653,22.06,51.89,34.18,33.815,8.25,96.5,2.6
11BHM04,11/2/2011,17:18,11/2/2011,13:18,27.60468,-82.73288,22.21,52.03,34.28,33.831,8.25,96.4,2.2
11BHM04,11/2/2011,17:23,11/2/2011,13:23,27.60683,-82.74883,22.34,52.17,34.38,33.822,8.26,96.8,3.3
11BHM04,11/2/2011,17:28,11/2/2011,13:28,27.60985,-82.76517,22.43,52.25,34.44,33.81,8.26,96.9,2.8
11BHM04,11/2/2011,17:33,11/2/2011,13:33,27.61297,-82.78155,22.55,52.38,34.53,33.795,8.27,97.4,1.4
11BHM04,11/2/2011,17:38,11/2/2011,13:38,27.61185,-82.79803,22.71,52.59,34.69,33.79,8.27,97.3,4.2
11BHM04,11/2/2011,17:43,11/2/2011,13:43,27.60898,-82.81363,22.86,52.78,34.83,33.781,8.27,97.5,1.6
11BHM04,11/2/2011,17:48,11/2/2011,13:48,27.60503,-82.82802,22.98,52.91,34.92,33.775,8.27,97.6,1.6
11BHM04,11/2/2011,17:53,11/2/2011,13:53,27.60025,-82.84132,23.1,53.04,35.02,33.764,8.26,97.7,1.2
11BHM04,11/2/2011,17:58,11/2/2011,13:58,27.5957,-82.85447,23.18,53.15,35.09,33.755,8.26,97.7,1.3
11BHM04,11/2/2011,18:03,11/2/2011,14:03,27.59135,-82.86752,23.24,53.22,35.14,33.748,8.26,97.6,1.9
11BHM04,11/2/2011,18:08,11/2/2011,14:08,27.58682,-82.88057,23.29,53.26,35.18,33.744,8.25,97.6,1.6
11BHM04,11/2/2011,18:13,11/2/2011,14:13,27.58235,-82.89347,23.33,53.3,35.21,33.742,8.25,97.5,1.4
11BHM04,11/2/2011,18:18,11/2/2011,14:18,27.57787,-82.90638,23.38,53.33,35.22,33.741,8.25,97.6,1.4
11BHM04,11/2/2011,18:23,11/2/2011,14:23,27.5735,-82.91935,23.42,53.35,35.24,33.739,8.24,97.7,2.1
11BHM04,11/2/2011,18:28,11/2/2011,14:28,27.56903,-82.93223,23.44,53.39,35.27,33.734,8.24,97.8,1.3
11BHM04,11/2/2011,18:33,11/2/2011,14:33,27.56465,-82.94512,23.47,53.41,35.29,33.733,8.24,97.9,2
11BHM04,11/2/2011,18:38,11/2/2011,14:38,27.56028,-82.958,23.5,53.44,35.3,33.729,8.23,97.8,1.1
11BHM04,11/2/2011,18:43,11/2/2011,14:43,27.55588,-82.97087,23.54,53.47,35.32,33.732,8.23,97.9,1.5
11BHM04,11/2/2011,18:48,11/2/2011,14:48,27.5515,-82.98327,23.56,53.49,35.34,33.728,8.23,97.9,1.4
11BHM04,11/2/2011,18:53,11/2/2011,14:53,27.55047,-82.98672,23.6,53.51,35.36,33.729,8.23,97.5,5.7
11BHM04,11/2/2011,18:58,11/2/2011,14:58,27.54933,-82.98975,23.63,53.53,35.37,33.723,8.23,97.3,1.9
11BHM04,11/2/2011,19:03,11/2/2011,15:03,27.54808,-82.99357,23.64,53.56,35.39,33.718,8.23,97.7,2
11BHM04,11/2/2011,19:08,11/2/2011,15:08,27.54677,-82.99713,23.67,53.56,35.4,33.712,8.22,97.6,1.7
11BHM04,11/2/2011,19:13,11/2/2011,15:13,27.54558,-83.00073,23.69,53.58,35.41,33.711,8.22,97.8,1.8
11BHM04,11/2/2011,19:18,11/2/2011,15:18,27.54435,-83.0044,23.7,53.59,35.41,33.712,8.22,97.6,1.6
11BHM04,11/2/2011,19:23,11/2/2011,15:23,27.54303,-83.00805,23.71,53.6,35.42,33.743,8.22,97.5,1.2
11BHM04,11/2/2011,19:28,11/2/2011,15:28,27.5418,-83.01167,23.72,53.65,35.45,33.749,8.22,97.5,1.5
11BHM04,11/2/2011,19:33,11/2/2011,15:33,27.54055,-83.0152,23.74,53.69,35.49,33.751,8.22,97.7,1.4
11BHM04,11/2/2011,19:38,11/2/2011,15:38,27.53782,-83.02302,23.75,53.72,35.51,33.748,8.22,97.7,1.8
11BHM04,11/2/2011,19:43,11/2/2011,15:43,27.53628,-83.0277,23.77,53.75,35.53,33.743,8.22,97.8,1.5
11BHM04,11/2/2011,19:48,11/2/2011,15:48,27.53533,-83.0283,23.79,53.77,35.54,33.734,8.22,97.8,2.8
11BHM04,11/2/2011,19:53,11/2/2011,15:53,27.53457,-83.02892,23.81,53.79,35.56,33.729,8.22,97.5,1.1
11BHM04,11/2/2011,19:58,11/2/2011,15:58,27.53363,-83.02927,23.83,53.82,35.58,33.725,8.22,97.8,2
11BHM04,11/2/2011,20:03,11/2/2011,16:03,27.5329,-83.02985,23.85,53.86,35.61,33.723,8.22,97.5,1.6
11BHM04,11/2/2011,20:08,11/2/2011,16:08,27.53208,-83.0327,23.87,53.89,35.63,33.722,8.22,97.9,1.7
11BHM04,11/2/2011,20:13,11/2/2011,16:13,27.531,-83.03603,23.92,53.92,35.66,33.721,8.22,97.7,1.5
11BHM04,11/2/2011,20:18,11/2/2011,16:18,27.52967,-83.03992,23.96,53.99,35.71,33.713,8.23,97.5,1.3
11BHM04,11/2/2011,20:23,11/2/2011,16:23,27.52843,-83.04392,24,54.05,35.75,33.713,8.23,97.5,1.3
11BHM04,11/2/2011,20:28,11/2/2011,16:28,27.52715,-83.04793,24.02,54.11,35.8,33.71,8.23,97.6,1.7
11BHM04,11/2/2011,20:33,11/2/2011,16:33,27.52585,-83.05195,24.03,54.15,35.82,33.709,8.24,97.5,1.2
11BHM04,11/2/2011,20:38,11/2/2011,16:38,27.52457,-83.05593,24.05,54.17,35.84,33.709,8.24,97.4,1.1
11BHM04,11/2/2011,20:43,11/2/2011,16:43,27.52332,-83.05982,24.07,54.18,35.85,33.708,8.24,97.7,1.5
11BHM04,11/2/2011,20:48,11/2/2011,16:48,27.52205,-83.06368,24.09,54.19,35.86,33.706,8.24,97.7,1.2
11BHM04,11/2/2011,20:53,11/2/2011,16:53,27.52073,-83.06762,24.1,54.21,35.87,33.706,8.24,97.5,1.4
11BHM04,11/2/2011,20:58,11/2/2011,16:58,27.51945,-83.07162,24.12,54.23,35.88,33.669,8.24,97.6,1.2
11BHM04,11/2/2011,21:03,11/2/2011,17:03,27.51815,-83.07563,24.15,54.24,35.89,33.705,8.24,97.6,0.9
11BHM04,11/2/2011,21:08,11/2/2011,17:08,27.51683,-83.07962,24.2,54.3,35.93,33.69,8.25,97.6,1.4
11BHM04,11/2/2011,21:13,11/2/2011,17:13,27.51558,-83.08338,24.21,54.31,35.94,33.699,8.25,97.8,4.2
11BHM04,11/2/2011,21:18,11/2/2011,17:18,27.51433,-83.08707,24.22,54.34,35.96,33.693,8.25,97.8,1.5
11BHM04,11/2/2011,21:23,11/2/2011,17:23,27.51298,-83.09077,24.22,54.37,35.99,33.695,8.25,97.9,2.1
11BHM04,11/2/2011,21:28,11/2/2011,17:28,27.51165,-83.09437,24.22,54.4,36.01,33.692,8.25,97.8,1.6
11BHM04,11/2/2011,21:33,11/2/2011,17:33,27.5103,-83.098,24.23,54.42,36.02,33.691,8.26,98,1.4
11BHM04,11/2/2011,21:38,11/2/2011,17:38,27.509,-83.10168,24.23,54.43,36.03,33.694,8.26,98,2.1
11BHM04,11/2/2011,21:43,11/2/2011,17:43,27.5077,-83.10537,24.25,54.44,36.03,33.69,8.26,97.9,5.4
11BHM04,11/2/2011,21:48,11/2/2011,17:48,27.50637,-83.10905,24.25,54.45,36.04,33.69,8.26,97.8,1.3
11BHM04,11/2/2011,21:53,11/2/2011,17:53,27.50502,-83.11277,24.25,54.46,36.05,33.686,8.26,97.9,4.7
11BHM04,11/2/2011,21:58,11/2/2011,17:58,27.5037,-83.11648,24.27,54.46,36.05,33.689,8.27,98,3.7
11BHM04,11/2/2011,22:03,11/2/2011,18:03,27.50232,-83.11998,24.27,54.47,36.05,33.689,8.27,98,1.2
11BHM04,11/2/2011,22:08,11/2/2011,18:08,27.50077,-83.1234,24.28,54.47,36.06,33.688,8.27,97.9,2.2
11BHM04,11/2/2011,22:13,11/2/2011,18:13,27.49893,-83.12677,24.28,54.48,36.07,33.684,8.27,97.7,1.7
11BHM04,11/2/2011,22:18,11/2/2011,18:18,27.49702,-83.13007,24.29,54.49,36.07,33.681,8.27,97.9,3.3
11BHM04,11/2/2011,22:23,11/2/2011,18:23,27.49507,-83.1334,24.29,54.49,36.07,33.684,8.28,97.9,1.2
11BHM04,11/2/2011,22:28,11/2/2011,18:28,27.49275,-83.13653,24.31,54.5,36.08,33.685,8.28,97.9,1.7
11BHM04,11/2/2011,22:33,11/2/2011,18:33,27.49037,-83.13968,24.38,54.48,36.06,33.681,8.29,97.4,3.2
11BHM04,11/2/2011,22:38,11/2/2011,18:38,27.48802,-83.1428,24.48,54.5,36.07,33.682,8.29,97,1.9
11BHM04,11/2/2011,22:43,11/2/2011,18:43,27.48563,-83.1459,24.5,54.57,36.12,33.68,8.3,96.9,1.5
11BHM04,11/2/2011,22:48,11/2/2011,18:48,27.48328,-83.14903,24.55,54.59,36.14,33.674,8.3,97.1,1.2
11BHM04,11/2/2011,22:53,11/2/2011,18:53,27.48092,-83.15222,24.57,54.64,36.18,33.736,8.3,97,1.4
11BHM04,11/2/2011,22:58,11/2/2011,18:58,27.47863,-83.15542,24.6,54.7,36.22,33.742,8.3,96.5,1
11BHM04,11/2/2011,23:03,11/2/2011,19:03,27.47635,-83.15865,24.62,54.72,36.24,33.741,8.3,96.6,1.6
11BHM04,11/2/2011,23:08,11/2/2011,19:08,27.47405,-83.16182,24.63,54.73,36.24,33.74,8.3,96.7,1.6
11BHM04,11/2/2011,23:13,11/2/2011,19:13,27.47272,-83.16452,24.64,54.74,36.25,33.739,8.31,96.8,1.3
11BHM04,11/2/2011,23:18,11/2/2011,19:18,27.47272,-83.17778,24.65,54.75,36.26,33.734,8.31,96.7,2
11BHM04,11/2/2011,23:23,11/2/2011,19:23,27.47257,-83.19095,24.65,54.76,36.27,33.732,8.31,96.5,1.6
11BHM04,11/2/2011,23:28,11/2/2011,19:28,27.47253,-83.20412,24.66,54.76,36.27,33.731,8.31,96.6,1.1
11BHM04,11/2/2011,23:33,11/2/2011,19:33,27.47253,-83.21717,24.66,54.77,36.27,33.731,8.31,96.5,0.9
11BHM04,11/2/2011,23:38,11/2/2011,19:38,27.4724,-83.23027,24.66,54.77,36.27,33.729,8.31,96.5,1.6
11BHM04,11/2/2011,23:43,11/2/2011,19:43,27.47228,-83.24335,24.66,54.77,36.27,33.732,8.32,96.4,1.5
11BHM04,11/2/2011,23:48,11/2/2011,19:48,27.47233,-83.2565,24.67,54.77,36.27,33.734,8.32,96.5,1.1
11BHM04,11/2/2011,23:53,11/2/2011,19:53,27.47227,-83.2697,24.67,54.77,36.27,33.734,8.32,96.5,1.8
11BHM04,11/2/2011,23:58,11/2/2011,19:58,27.47218,-83.28198,24.67,54.77,36.27,33.733,8.32,96.4,3.2
11BHM04,11/3/2011,0:03,11/2/2011,20:03,27.4722,-83.28622,24.67,54.77,36.28,33.732,8.32,96.2,1.1
11BHM04,11/3/2011,0:08,11/2/2011,20:08,27.47205,-83.2896,24.67,54.78,36.28,33.732,8.32,96.4,1.1
11BHM04,11/3/2011,0:13,11/2/2011,20:13,27.47207,-83.29325,24.68,54.77,36.28,33.731,8.32,96.5,2.2
11BHM04,11/3/2011,0:18,11/2/2011,20:18,27.47202,-83.29688,24.68,54.77,36.28,33.737,8.32,96.4,1.9
11BHM04,11/3/2011,0:23,11/2/2011,20:23,27.47197,-83.30037,24.68,54.77,36.27,33.721,8.33,96.3,4.9
11BHM04,11/3/2011,0:28,11/2/2011,20:28,27.47188,-83.30408,24.68,54.78,36.28,33.722,8.33,96.3,1.7
11BHM04,11/3/2011,0:33,11/2/2011,20:33,27.4718,-83.30763,24.68,54.77,36.28,33.73,8.32,96.5,1.4
11BHM04,11/3/2011,0:38,11/2/2011,20:38,27.4717,-83.31118,24.68,54.77,36.27,33.724,8.33,97.1,1.6
11BHM04,11/3/2011,0:43,11/2/2011,20:43,27.47178,-83.31473,24.67,54.78,36.28,33.725,8.33,96.8,1.2
11BHM04,11/3/2011,0:48,11/2/2011,20:48,27.47182,-83.31828,24.69,54.76,36.27,33.727,8.33,96.6,1.4
11BHM04,11/3/2011,0:53,11/2/2011,20:53,27.47187,-83.32175,24.69,54.77,36.27,33.731,8.33,96.4,1.3
11BHM04,11/3/2011,0:58,11/2/2011,20:58,27.47195,-83.32518,24.69,54.76,36.27,33.728,8.33,96.6,2.4
11BHM04,11/3/2011,1:03,11/2/2011,21:03,27.47142,-83.3262,24.69,54.77,36.27,33.73,8.33,96.5,1.6
11BHM04,11/3/2011,1:08,11/2/2011,21:08,27.47118,-83.32588,24.71,54.76,36.27,33.728,8.33,96.5,2.2
11BHM04,11/3/2011,1:13,11/2/2011,21:13,27.47003,-83.3264,24.72,54.76,36.27,33.73,8.33,96.4,1.7
11BHM04,11/3/2011,1:18,11/2/2011,21:18,27.46893,-83.3269,24.72,54.77,36.27,33.729,8.33,96.6,1.7
11BHM04,11/3/2011,1:23,11/2/2011,21:23,27.46927,-83.32445,24.72,54.77,36.27,33.73,8.33,96.5,1.4
11BHM04,11/3/2011,1:28,11/2/2011,21:28,27.47128,-83.31828,24.71,54.77,36.27,33.729,8.34,96.4,2.5
11BHM04,11/3/2011,1:33,11/2/2011,21:33,27.47017,-83.31908,24.72,54.76,36.27,33.73,8.34,96.4,5.1
11BHM04,11/3/2011,1:38,11/2/2011,21:38,27.46872,-83.32327,24.71,54.77,36.27,33.73,8.34,96.3,1.6
11BHM04,11/3/2011,1:43,11/2/2011,21:43,27.46667,-83.33105,24.71,54.77,36.27,33.729,8.34,96.4,3.3
11BHM04,11/3/2011,1:48,11/2/2011,21:48,27.46472,-83.3366,24.69,54.78,36.28,33.73,8.34,96.4,2
11BHM04,11/3/2011,1:53,11/2/2011,21:53,27.46238,-83.34065,24.7,54.78,36.28,33.73,8.34,96.3,1.6
11BHM04,11/3/2011,1:58,11/2/2011,21:58,27.46068,-83.34473,24.7,54.78,36.28,33.729,8.34,96.4,1.5
11BHM04,11/3/2011,2:03,11/2/2011,22:03,27.45893,-83.34878,24.7,54.78,36.28,33.728,8.34,96.1,0.9
11BHM04,11/3/2011,2:08,11/2/2011,22:08,27.4572,-83.35285,24.71,54.78,36.28,33.727,8.34,96.4,1.3
11BHM04,11/3/2011,2:13,11/2/2011,22:13,27.45545,-83.35703,24.69,54.78,36.28,33.727,8.34,96.4,1.6
11BHM04,11/3/2011,2:18,11/2/2011,22:18,27.45367,-83.36123,24.66,54.81,36.3,33.729,8.35,96.4,0.9
11BHM04,11/3/2011,2:23,11/2/2011,22:23,27.45192,-83.3653,24.68,54.78,36.28,33.729,8.35,96.4,1.9
11BHM04,11/3/2011,2:28,11/2/2011,22:28,27.45015,-83.36953,24.68,54.78,36.28,33.728,8.35,96.4,2.7
11BHM04,11/3/2011,2:33,11/2/2011,22:33,27.4484,-83.37377,24.67,54.78,36.28,33.726,8.35,96.4,2.9
11BHM04,11/3/2011,2:38,11/2/2011,22:38,27.44667,-83.37807,24.66,54.78,36.28,33.727,8.35,96.3,1.7
11BHM04,11/3/2011,2:43,11/2/2011,22:43,27.44502,-83.38252,24.66,54.77,36.27,33.725,8.35,96.3,3.4
11BHM04,11/3/2011,2:48,11/2/2011,22:48,27.44327,-83.38697,24.67,54.76,36.26,33.724,8.35,96.4,1.3
11BHM04,11/3/2011,2:53,11/2/2011,22:53,27.4416,-83.39138,24.66,54.77,36.27,33.728,8.35,96.3,2.7
11BHM04,11/3/2011,2:58,11/2/2011,22:58,27.44005,-83.39582,24.66,54.76,36.27,33.727,8.35,96.3,2.7
11BHM04,11/3/2011,3:03,11/2/2011,23:03,27.43853,-83.40032,24.67,54.75,36.26,33.733,8.35,96.3,2.5
11BHM04,11/3/2011,3:08,11/2/2011,23:08,27.437,-83.40485,24.67,54.76,36.26,33.733,8.35,96.3,1.7
11BHM04,11/3/2011,3:13,11/2/2011,23:13,27.4354,-83.40922,24.67,54.75,36.26,33.732,8.35,96.2,1.3
11BHM04,11/3/2011,3:18,11/2/2011,23:18,27.43388,-83.41365,24.67,54.74,36.25,33.734,8.35,96.1,0.9
11BHM04,11/3/2011,3:23,11/2/2011,23:23,27.43228,-83.41815,24.67,54.73,36.25,33.739,8.35,96.2,1.6
11BHM04,11/3/2011,3:28,11/2/2011,23:28,27.43078,-83.42267,24.66,54.75,36.26,33.737,8.35,96.2,1.7
11BHM04,11/3/2011,3:33,11/2/2011,23:33,27.42915,-83.42727,24.67,54.73,36.25,33.735,8.35,96.1,1.3
11BHM04,11/3/2011,3:38,11/2/2011,23:38,27.42757,-83.43198,24.67,54.73,36.24,33.734,8.35,96,1.6
11BHM04,11/3/2011,3:43,11/2/2011,23:43,27.42597,-83.43677,24.67,54.73,36.24,33.735,8.35,96.1,1.5
11BHM04,11/3/2011,3:48,11/2/2011,23:48,27.42443,-83.44143,24.65,54.74,36.25,33.733,8.36,96,1.8
11BHM04,11/3/2011,3:53,11/2/2011,23:53,27.42292,-83.44608,24.67,54.74,36.25,33.735,8.36,95.8,3.5
11BHM04,11/3/2011,3:58,11/2/2011,23:58,27.42143,-83.45082,24.7,54.73,36.25,33.737,8.36,95.9,1.4
11BHM04,11/3/2011,4:03,11/3/2011,0:03,27.41992,-83.45547,24.7,54.73,36.24,33.739,8.36,95.9,1.6
11BHM04,11/3/2011,4:08,11/3/2011,0:08,27.41843,-83.46015,24.71,54.72,36.24,33.739,8.36,95.8,1.9
11BHM04,11/3/2011,4:13,11/3/2011,0:13,27.41697,-83.46468,24.71,54.72,36.23,33.736,8.36,95.7,1.5
11BHM04,11/3/2011,4:18,11/3/2011,0:18,27.41543,-83.46937,24.72,54.71,36.23,33.736,8.36,95.7,2.2
11BHM04,11/3/2011,4:23,11/3/2011,0:23,27.41387,-83.47387,24.71,54.71,36.23,33.736,8.36,95.7,1.9
11BHM04,11/3/2011,4:28,11/3/2011,0:28,27.41292,-83.47888,24.72,54.7,36.22,33.736,8.36,95.6,2.3
11BHM04,11/3/2011,4:33,11/3/2011,0:33,27.4125,-83.48595,24.71,54.7,36.22,33.735,8.36,95.5,1.8
11BHM04,11/3/2011,4:38,11/3/2011,0:38,27.41213,-83.49307,24.73,54.69,36.22,33.736,8.36,95.5,1.5
11BHM04,11/3/2011,4:43,11/3/2011,0:43,27.4118,-83.50022,24.74,54.69,36.21,33.737,8.36,95.3,1.3
11BHM04,11/3/2011,4:48,11/3/2011,0:48,27.41115,-83.5078,24.73,54.69,36.21,33.737,8.36,95.2,1.4
11BHM04,11/3/2011,4:53,11/3/2011,0:53,27.41037,-83.5161,24.75,54.69,36.21,33.734,8.36,94.8,4.3
11BHM04,11/3/2011,4:58,11/3/2011,0:58,27.40965,-83.52445,24.75,54.69,36.21,33.734,8.37,95,7
11BHM04,11/3/2011,5:03,11/3/2011,1:03,27.40915,-83.53278,24.76,54.7,36.22,33.731,8.37,94.8,2.1
11BHM04,11/3/2011,5:08,11/3/2011,1:08,27.40875,-83.54107,24.77,54.7,36.22,33.73,8.37,94.6,4.6
11BHM04,11/3/2011,5:13,11/3/2011,1:13,27.40847,-83.54925,24.79,54.7,36.22,33.726,8.37,94.5,8.8
11BHM04,11/3/2011,5:18,11/3/2011,1:18,27.4083,-83.55747,24.81,54.69,36.21,33.726,8.37,94.5,2.3
11BHM04,11/3/2011,5:23,11/3/2011,1:23,27.40817,-83.5657,24.82,54.69,36.21,33.727,8.37,94.5,1.7
11BHM04,11/3/2011,5:28,11/3/2011,1:28,27.40805,-83.5739,24.81,54.69,36.21,33.727,8.37,94.7,2
11BHM04,11/3/2011,5:33,11/3/2011,1:33,27.40793,-83.58203,24.81,54.69,36.21,33.724,8.37,94.6,2.1
11BHM04,11/3/2011,5:38,11/3/2011,1:38,27.40773,-83.59015,24.8,54.68,36.2,33.722,8.37,94.6,1.8
11BHM04,11/3/2011,5:43,11/3/2011,1:43,27.40758,-83.59835,24.79,54.67,36.2,33.724,8.37,94.6,1.5
11BHM04,11/3/2011,5:48,11/3/2011,1:48,27.4075,-83.60653,24.79,54.66,36.19,33.722,8.37,94.5,2.2
11BHM04,11/3/2011,5:53,11/3/2011,1:53,27.40733,-83.61473,24.78,54.65,36.18,33.721,8.37,94.5,1.3
11BHM04,11/3/2011,5:58,11/3/2011,1:58,27.4072,-83.62293,24.77,54.63,36.17,33.72,8.37,94.4,2.5
11BHM04,11/3/2011,6:03,11/3/2011,2:03,27.40707,-83.6312,24.75,54.63,36.17,33.72,8.37,94.4,1.9
11BHM04,11/3/2011,6:08,11/3/2011,2:08,27.407,-83.6394,24.73,54.63,36.17,33.718,8.37,94.4,2.9
11BHM04,11/3/2011,6:13,11/3/2011,2:13,27.40688,-83.6476,24.72,54.62,36.16,33.718,8.37,94.4,6.5
11BHM04,11/3/2011,6:18,11/3/2011,2:18,27.40675,-83.65572,24.7,54.62,36.16,33.719,8.37,94.4,1.8
11BHM04,11/3/2011,6:23,11/3/2011,2:23,27.40677,-83.66388,24.7,54.61,36.15,33.718,8.37,94.3,2.1
11BHM04,11/3/2011,6:28,11/3/2011,2:28,27.4068,-83.672,24.69,54.6,36.15,33.719,8.37,94.3,4.3
11BHM04,11/3/2011,6:33,11/3/2011,2:33,27.40677,-83.68015,24.68,54.6,36.15,33.717,8.37,94.3,2.4
11BHM04,11/3/2011,6:38,11/3/2011,2:38,27.40672,-83.68835,24.68,54.59,36.14,33.714,8.37,94.3,1.7
11BHM04,11/3/2011,6:43,11/3/2011,2:43,27.40665,-83.69652,24.67,54.59,36.14,33.714,8.37,94.3,5.2
11BHM04,11/3/2011,6:48,11/3/2011,2:48,27.40662,-83.7046,24.65,54.6,36.14,33.712,8.37,94.1,6.4
11BHM04,11/3/2011,6:53,11/3/2011,2:53,27.40652,-83.7128,24.65,54.59,36.14,33.716,8.37,94.2,2
11BHM04,11/3/2011,6:58,11/3/2011,2:58,27.40652,-83.72105,24.65,54.58,36.13,33.716,8.37,94.2,1.5
11BHM04,11/3/2011,7:03,11/3/2011,3:03,27.40655,-83.73005,24.65,54.58,36.13,33.716,8.37,94.1,1.5
11BHM04,11/3/2011,7:08,11/3/2011,3:08,27.40655,-83.73898,24.64,54.58,36.13,33.716,8.37,94.2,5.3
11BHM04,11/3/2011,7:13,11/3/2011,3:13,27.40658,-83.74802,24.66,54.56,36.12,33.712,8.38,94.1,2.1
11BHM04,11/3/2011,7:18,11/3/2011,3:18,27.40665,-83.75708,24.65,54.57,36.12,33.713,8.38,94,1.8
11BHM04,11/3/2011,7:23,11/3/2011,3:23,27.40672,-83.7661,24.64,54.56,36.12,33.713,8.38,94.1,1.3
11BHM04,11/3/2011,7:28,11/3/2011,3:28,27.40677,-83.77503,24.64,54.55,36.11,33.71,8.38,94,1.8
11BHM04,11/3/2011,7:33,11/3/2011,3:33,27.40688,-83.78392,24.64,54.53,36.1,33.712,8.38,94.1,1.8
11BHM04,11/3/2011,7:38,11/3/2011,3:38,27.40693,-83.79292,24.63,54.54,36.1,33.711,8.38,94.1,2.4
11BHM04,11/3/2011,7:43,11/3/2011,3:43,27.40703,-83.8019,24.64,54.52,36.09,33.709,8.38,94.1,3.7
11BHM04,11/3/2011,7:48,11/3/2011,3:48,27.40703,-83.81082,24.63,54.52,36.09,33.71,8.38,94.1,1.7
11BHM04,11/3/2011,7:53,11/3/2011,3:53,27.40703,-83.8198,24.64,54.51,36.08,33.712,8.38,94.1,1.7
11BHM04,11/3/2011,7:58,11/3/2011,3:58,27.407,-83.8287,24.62,54.51,36.08,33.707,8.38,94,1.7
11BHM04,11/3/2011,8:03,11/3/2011,4:03,27.40688,-83.83763,24.62,54.5,36.07,33.709,8.38,94.1,6.7
11BHM04,11/3/2011,8:08,11/3/2011,4:08,27.40673,-83.84648,24.62,54.5,36.07,33.709,8.38,93.9,1.8
11BHM04,11/3/2011,8:13,11/3/2011,4:13,27.40537,-83.85522,24.62,54.48,36.06,33.71,8.38,93.9,1.3
11BHM04,11/3/2011,8:18,11/3/2011,4:18,27.40362,-83.8639,24.61,54.48,36.06,33.697,8.38,94,1.1
11BHM04,11/3/2011,8:23,11/3/2011,4:23,27.402,-83.87263,24.58,54.48,36.06,33.705,8.38,94.5,2
11BHM04,11/3/2011,8:28,11/3/2011,4:28,27.40075,-83.88135,24.53,54.47,36.05,33.703,8.38,95.6,2
11BHM04,11/3/2011,8:33,11/3/2011,4:33,27.39948,-83.89008,24.52,54.46,36.04,33.703,8.38,98.8,1.8
11BHM04,11/3/2011,8:38,11/3/2011,4:38,27.39828,-83.89872,24.42,54.51,36.08,33.704,8.38,99.5,2.8
11BHM04,11/3/2011,8:43,11/3/2011,4:43,27.39703,-83.90733,24.42,54.49,36.07,33.699,8.38,99.9,1.7
11BHM04,11/3/2011,8:48,11/3/2011,4:48,27.39577,-83.91592,24.41,54.49,36.07,33.697,8.38,100.2,1.5
11BHM04,11/3/2011,8:53,11/3/2011,4:53,27.3944,-83.92463,24.4,54.48,36.06,33.697,8.38,100.6,2
11BHM04,11/3/2011,8:58,11/3/2011,4:58,27.39305,-83.93352,24.37,54.49,36.07,33.692,8.38,101,2.2
11BHM04,11/3/2011,9:03,11/3/2011,5:03,27.39165,-83.94235,24.48,54.4,36,33.811,8.38,103,2
11BHM04,11/3/2011,9:08,11/3/2011,5:08,27.3902,-83.95115,24.69,54.35,35.96,33.719,8.38,105.6,2.3
11BHM04,11/3/2011,9:13,11/3/2011,5:13,27.3888,-83.96007,24.92,54.3,35.92,33.805,8.38,106.9,1.4
11BHM04,11/3/2011,9:18,11/3/2011,5:18,27.3857,-83.96305,25.12,54.28,35.89,33.869,8.38,108.1,3.8
11BHM04,11/3/2011,9:23,11/3/2011,5:23,27.38123,-83.9578,25.25,54.27,35.89,33.928,8.38,108.4,2.4
11BHM04,11/3/2011,9:28,11/3/2011,5:28,27.37667,-83.95238,25.28,54.22,35.85,33.716,8.38,110.5,1.7
11BHM04,11/3/2011,9:33,11/3/2011,5:33,27.37278,-83.9474,25.2,54.2,35.84,33.792,8.38,109.8,2
11BHM04,11/3/2011,9:38,11/3/2011,5:38,27.3689,-83.9423,25.27,54.13,35.78,33.89,8.38,107.2,3
11BHM04,11/3/2011,9:43,11/3/2011,5:43,27.36493,-83.93725,25.31,54.1,35.76,33.816,8.38,111.7,1.4
11BHM04,11/3/2011,9:48,11/3/2011,5:48,27.36115,-83.93247,25.33,54.08,35.75,33.833,8.38,106.5,1.6
11BHM04,11/3/2011,9:53,11/3/2011,5:53,27.35725,-83.92727,25.31,54.1,35.76,33.758,8.38,109.6,2.1
11BHM04,11/3/2011,9:58,11/3/2011,5:58,27.35407,-83.92302,25.29,54.08,35.74,33.784,8.38,109.2,2.1
11BHM04,11/3/2011,10:03,11/3/2011,6:03,27.35342,-83.92007,25.3,54,35.68,33.795,8.38,108.2,1.8
11BHM04,11/3/2011,10:08,11/3/2011,6:08,27.35285,-83.91657,25.3,53.97,35.67,33.853,8.38,109.8,2
11BHM04,11/3/2011,10:13,11/3/2011,6:13,27.35143,-83.91353,25.3,54,35.69,33.832,8.38,111.8,1.6
11BHM04,11/3/2011,10:18,11/3/2011,6:18,27.35072,-83.91037,25.28,54.05,35.72,33.82,8.38,107.5,2.2
11BHM04,11/3/2011,10:23,11/3/2011,6:23,27.35197,-83.90732,25.28,53.97,35.67,33.883,8.38,108.1,1.7
11BHM04,11/3/2011,10:28,11/3/2011,6:28,27.35308,-83.9042,25.31,54.03,35.71,33.893,8.38,103.4,1.4
11BHM04,11/3/2011,10:33,11/3/2011,6:33,27.35438,-83.90112,25.36,54.03,35.7,33.884,8.38,100.1,1.9
11BHM04,11/3/2011,10:38,11/3/2011,6:38,27.35568,-83.8976,25.4,54.04,35.72,33.906,8.38,99.9,1.6
11BHM04,11/3/2011,10:43,11/3/2011,6:43,27.35637,-83.89425,25.42,54.09,35.75,33.896,8.38,102.3,2
11BHM04,11/3/2011,10:48,11/3/2011,6:48,27.35713,-83.89087,25.44,54.07,35.73,33.886,8.38,99.8,2.1
11BHM04,11/3/2011,10:53,11/3/2011,6:53,27.35823,-83.88773,25.44,54.07,35.73,33.873,8.37,98.3,1.3
11BHM04,11/3/2011,10:58,11/3/2011,6:58,27.35925,-83.88465,25.44,54.12,35.77,33.857,8.37,97.4,1.7
11BHM04,11/3/2011,11:03,11/3/2011,7:03,27.36027,-83.88133,25.44,54.12,35.77,33.857,8.38,97,1.3
11BHM04,11/3/2011,11:08,11/3/2011,7:08,27.3614,-83.8779,25.44,54.11,35.77,33.85,8.37,96.5,0.9
11BHM04,11/3/2011,11:13,11/3/2011,7:13,27.36255,-83.8744,25.45,54.12,35.77,33.843,8.37,96.2,0.7
11BHM04,11/3/2011,11:18,11/3/2011,7:18,27.36357,-83.87105,25.45,54.14,35.79,33.84,8.37,96,2.3
11BHM04,11/3/2011,11:23,11/3/2011,7:23,27.36003,-83.87208,25.46,54.16,35.8,33.834,8.37,95.9,1.2
11BHM04,11/3/2011,11:28,11/3/2011,7:28,27.35088,-83.88065,25.46,54.17,35.81,33.834,8.37,95.8,1.6
11BHM04,11/3/2011,11:33,11/3/2011,7:33,27.34588,-83.8866,25.45,54.18,35.81,33.836,8.37,95.7,2.5
11BHM04,11/3/2011,11:38,11/3/2011,7:38,27.34587,-83.88775,25.46,54.2,35.83,33.833,8.37,95.6,2.9
11BHM04,11/3/2011,11:43,11/3/2011,7:43,27.3463,-83.88892,25.45,54.21,35.84,33.831,8.37,95.6,1.9
11BHM04,11/3/2011,11:48,11/3/2011,7:48,27.34622,-83.89168,25.44,54.22,35.85,33.839,8.37,95.6,1.7
11BHM04,11/3/2011,11:53,11/3/2011,7:53,27.34463,-83.90052,25.43,54.23,35.85,33.83,8.37,95.6,2.2
11BHM04,11/3/2011,11:58,11/3/2011,7:58,27.34358,-83.90932,25.43,54.23,35.86,33.825,8.37,95.6,1.4
11BHM04,11/3/2011,12:03,11/3/2011,8:03,27.34257,-83.9182,25.43,54.24,35.86,33.829,8.37,95.5,1.4
11BHM04,11/3/2011,12:08,11/3/2011,8:08,27.3416,-83.92678,25.42,54.25,35.87,33.824,8.37,96.2,1.8
11BHM04,11/3/2011,12:13,11/3/2011,8:13,27.3415,-83.93125,25.42,54.25,35.87,33.82,8.37,96.1,2.3
11BHM04,11/3/2011,12:18,11/3/2011,8:18,27.34172,-83.9354,25.41,54.25,35.87,33.817,8.37,95.8,1.8
11BHM04,11/3/2011,12:23,11/3/2011,8:23,27.34177,-83.93977,25.4,54.26,35.87,33.821,8.37,95.7,2
11BHM04,11/3/2011,12:28,11/3/2011,8:28,27.34173,-83.9442,25.4,54.25,35.87,33.819,8.37,95.3,1.4
11BHM04,11/3/2011,12:33,11/3/2011,8:33,27.34163,-83.94868,25.39,54.26,35.87,33.815,8.37,95.5,1.3
11BHM04,11/3/2011,12:38,11/3/2011,8:38,27.3413,-83.95315,25.39,54.26,35.87,33.815,8.37,95.4,3.3
11BHM04,11/3/2011,12:43,11/3/2011,8:43,27.34088,-83.95752,25.38,54.26,35.87,33.819,8.37,95.4,1.6
11BHM04,11/3/2011,12:48,11/3/2011,8:48,27.34043,-83.96187,25.37,54.26,35.87,33.814,8.37,95.4,1.5
11BHM04,11/3/2011,12:53,11/3/2011,8:53,27.34043,-83.9662,25.37,54.25,35.87,33.819,8.37,95.3,1.5
11BHM04,11/3/2011,12:58,11/3/2011,8:58,27.34073,-83.97043,25.37,54.26,35.87,33.82,8.37,95.4,1.3
11BHM04,11/3/2011,13:03,11/3/2011,9:03,27.34117,-83.9746,25.36,54.26,35.88,33.818,8.37,95.4,1
11BHM04,11/3/2011,13:08,11/3/2011,9:08,27.3416,-83.97882,25.36,54.26,35.88,33.815,8.37,95.3,1.5
11BHM04,11/3/2011,13:13,11/3/2011,9:13,27.342,-83.98293,25.36,54.27,35.88,33.816,8.37,95.3,2.1
11BHM04,11/3/2011,13:18,11/3/2011,9:18,27.34242,-83.9871,25.36,54.27,35.88,33.816,8.36,95.4,1.7
11BHM04,11/3/2011,13:23,11/3/2011,9:23,27.34288,-83.99133,25.37,54.27,35.88,33.815,8.36,95.3,1.1
11BHM04,11/3/2011,13:28,11/3/2011,9:28,27.34337,-83.99552,25.37,54.28,35.89,33.816,8.37,95.3,1.6